Location: Castle
(40.7167°S, 175.9500°E)
Time: 07:04:31
(UTC+00:00)

Tiangong - Pass Details

Date: 14 October 2024
Orbit: 383 x 395 km, 41.5° (Epoch: 11 November)

Event Time Altitude Azimuth Distance (km) Brightness Sun altitude
Rises 08:20:35 0° 286° (WNW) 2,335 2.5 -19.3°
Reaches altitude 10° 08:22:41 10° 287° (WNW) 1,481 1.4 -19.7°
Enters shadow 08:25:46 71° 320° (NW) 444 -1.9 -20.2°
